This is the latest recevied weather packets stored in our database for station/object IW2NIA-3. If no packets are shown the sender has not sent any weather packets the latest 10 day(s).
| Time | Temp. | Humidity | Pressure | Rain* | Wind** | Luminosity | Snow |
|---|---|---|---|---|---|---|---|
| 1777883620 | 18.89° C | 46% | 1017.5 hPa | 0 mm | - | - | - |
| 1777882718 | 18.33° C | 48% | 1017.5 hPa | 0 mm | - | - | - |
| 1777881808 | 17.78° C | 47% | 1017.5 hPa | 0 mm | - | - | - |
| 1777880918 | 17.78° C | 49% | 1017.4 hPa | 0 mm | - | - | - |
| 1777880015 | 17.22° C | 49% | 1017.3 hPa | 0 mm | - | - | - |
| 1777879113 | 17.22° C | 49% | 1017.2 hPa | 0 mm | - | - | - |
| 1777878210 | 17.22° C | 49% | 1017.2 hPa | 0 mm | - | - | - |
| 1777877322 | 16.67° C | 58% | 1017.1 hPa | 0 mm | - | - | - |
| 1777876415 | 15.56° C | 67% | 1016.9 hPa | 0 mm | - | - | - |
| 1777875510 | 15° C | 71% | 1017 hPa | 0 mm | - | - | - |
| 1777874621 | 13.89° C | 72% | 1016.8 hPa | 0 mm | - | - | - |
| 1777873715 | 13.33° C | 78% | 1016.9 hPa | 0 mm | - | - | - |
| 1777872825 | 12.22° C | 76% | 1016.8 hPa | 0 mm | - | - | - |
| 1777871917 | 12.22° C | 77% | 1016.5 hPa | 0 mm | - | - | - |
| 1777871012 | 11.67° C | 79% | 1016.5 hPa | 0 mm | - | - | - |
| 1777870126 | 11.67° C | 79% | 1016.3 hPa | 0 mm | - | - | - |
| 1777869214 | 11.11° C | 79% | 1016.1 hPa | 0 mm | - | - | - |
| 1777868312 | 11.11° C | 79% | 1016 hPa | 0 mm | - | - | - |
| 1777867409 | 11.11° C | 79% | 1016.1 hPa | 0 mm | - | - | - |
| 1777866522 | 11.11° C | 78% | 1016.1 hPa | 0 mm | - | - | - |
| 1777865622 | 11.11° C | 77% | 1016.1 hPa | 0 mm | - | - | - |
| 1777864720 | 11.11° C | 79% | 1016 hPa | 0 mm | - | - | - |
| 1777863813 | 11.11° C | 81% | 1016.1 hPa | 0 mm | - | - | - |
| 1777862907 | 11.67° C | 81% | 1016.1 hPa | 0 mm | - | - | - |
| 1777862022 | 11.67° C | 80% | 1016.2 hPa | 0 mm | - | - | - |
* Rain latest hour (hover to see other rain measurements)
** Current wind speed in m/s (hover to see current wind gust speed)